Torna al catalogo

MOLNIYA 3-8

AttivoComunicazioniHEO
NORAD 10455·PAYLOAD·🇷🇺 Russia

Lanciato Oct 28, 1977 da Plesetsk Cosmodrome

Loading…

Prossimi Passaggi (prossime 24 ore)

TLE

AggiornatoSource: Space-Track

Epoca: Sep 12, 2026, 19:16 UTC

1 10455U 77105A   26255.80283984  .00000048  00000-0  00000-0 0  9999
2 10455  63.8038 168.2174 6697524 275.7012  17.3149  2.00796724358207

Traccia MOLNIYA 3-8 in tempo reale con AllMySat

Download on the App Store